Location: Larkspur
(54.4391°N, 113.7691°W)
Time: 12:56:15
(UTC+00:00)

Oscar 19 - Pass Details

Date: 05 December 2023
Orbit: 771 x 789 km, 98.9° (Epoch: 01 March)

Event Time Altitude Azimuth Distance (km) Brightness Sun altitude
Rises 23:55:16 0° 188° (S) 3,235 14.5 -5.9°
Reaches altitude 10° 23:57:45 10° 197° (SSW) 2,313 13.9 -6.2°
Maximum altitude 00:02:26 36° 264° (W) 1,208 12.4 -6.8°
Drops below altitude 10° 00:07:10 10° 330° (NNW) 2,333 13.1 -7.4°
Sets 00:09:40 0° 339° (NNW) 3,267 13.8 -7.7°
